Location: Baia Mare
(47.6567°N, 23.5850°E)
Time: 13:44:22
(UTC+03:00)

ISS - Pass Details

Date: 28 May 2018
Orbit: 402 x 406 km, 51.6° (Epoch: 19 June)

Event Time Altitude Azimuth Distance (km) Brightness Sun altitude
Rises 21:58:44 0° 271° (W) 2,321 0.8 -7.0°
Reaches altitude 10° 22:00:53 10° 279° (W) 1,461 -0.1 -7.3°
Maximum altitude 22:04:01 42° 352° (N) 591 -2.5 -7.7°
Drops below altitude 10° 22:07:09 10° 65° (ENE) 1,460 -1.2 -8.0°
Sets 22:09:18 0° 73° (ENE) 2,320 -0.3 -8.3°
